EW9455 Weather Reports


Display with metric or nautical units.
time (UTC)temp
F
wind
direction
speed
MPH
gust
MPH
rain 1hr
in
rain 24hr
in
rain mn
in
humidity
%
barometer
mb
20180816004516 83 0.0 7.0 0.00 0.00 0.00 73 1018.2
20180816003516 83 126 3.0 9.0 0.00 0.00 0.00 73 1018.2
20180816002516 83 135 3.0 9.0 0.00 0.00 0.00 73 1018.4
20180816001516 83 136 2.0 8.0 0.00 0.00 0.00 73 1018.5
20180816000516 83 131 3.0 10.0 0.00 0.00 0.00 73 1015.6
20180815235516 83 129 2.0 8.0 0.00 0.00 0.00 73 1015.5
20180815234516 84 137 5.0 11.0 0.00 0.00 0.00 71 1018.2
20180815233516 84 133 4.0 10.0 0.00 0.00 0.00 72 1018.0
20180815232516 84 141 6.0 11.0 0.00 0.00 0.00 71 1017.3
20180815231516 84 142 6.0 12.0 0.00 0.00 0.00 70 1017.6
20180815230516 84 141 7.0 15.0 0.00 0.00 0.00 70 1017.3
20180815225516 85 145 7.0 15.0 0.00 0.00 0.00 67 1017.2
20180815224516 85 124 6.0 12.0 0.00 0.00 0.00 65 1017.0
20180815223516 85 128 7.0 13.0 0.00 0.00 0.00 64 1016.9
20180815222516 86 124 9.0 14.0 0.00 0.00 0.00 62 1016.8
20180815221516 86 127 8.0 14.0 0.00 0.00 0.00 63 1017.0
20180815220515 86 130 8.0 15.0 0.00 0.00 0.00 67 1017.2
20180815215515 87 134 6.0 14.0 0.00 0.00 0.00 68 1017.4
20180815214516 87 138 5.0 14.0 0.00 0.00 0.00 68 1017.2
20180815213515 86 127 9.0 17.0 0.00 0.00 0.00 69 1017.3
20180815212515 87 126 7.0 18.0 0.00 0.00 0.00 68 1017.2
20180815211515 87 129 8.0 18.0 0.00 0.00 0.00 66 1017.2
20180815210515 87 125 9.0 15.0 0.00 0.00 0.00 68 1017.2
20180815205515 87 123 9.0 16.0 0.00 0.00 0.00 67 1017.2
20180815204515 87 134 8.0 18.0 0.00 0.00 0.00 64 1017.3
20180815203515 87 126 9.0 17.0 0.00 0.00 0.00 66 1017.6
20180815202515 88 135 8.0 16.0 0.00 0.00 0.00 66 1017.9
20180815201515 87 110 6.0 15.0 0.00 0.00 0.00 66 1017.8
20180815200515 88 121 7.0 15.0 0.00 0.01 0.00 65 1017.9
20180815195515 88 120 7.0 16.0 0.00 0.01 0.00 62 1017.8
20180815194515 88 128 5.0 14.0 0.00 0.01 0.00 65 1017.9
20180815193515 88 122 5.0 15.0 0.00 0.01 0.00 66 1018.0
20180815192515 88 117 6.0 12.0 0.00 0.01 0.00 66 1018.1
20180815191517 88 126 5.0 12.0 0.00 0.01 0.00 68 1018.1
20180815190517 87 116 5.0 14.0 0.00 0.01 0.00 71 1018.2
20180815185517 88 119 6.0 16.0 0.00 0.01 0.00 69 1018.5
20180815184517 87 115 5.0 12.0 0.00 0.01 0.00 70 1018.6
20180815183517 88 112 6.0 14.0 0.00 0.01 0.00 66 1018.5
20180815182516 88 113 8.0 14.0 0.00 0.01 0.00 66 1018.7
20180815181516 88 122 6.0 15.0 0.00 0.01 0.00 67 1018.7
20180815180517 88 134 5.0 11.0 0.00 0.01 0.00 64 1018.8
20180815175516 87 123 1.0 10.0 0.00 0.01 0.00 65 1018.8
20180815174516 87 145 6.0 15.0 0.00 0.01 0.00 69 1019.1
20180815173516 87 283 3.0 10.0 0.00 0.01 0.00 70 1019.2
20180815172517 85 20 3.0 5.0 0.00 0.01 0.00 71 1019.1
20180815171516 85 244 1.0 5.0 0.00 0.01 0.00 70 1019.0
20180815170517 85 239 2.0 6.0 0.00 0.01 0.00 70 1019.4
20180815165516 86 240 4.0 10.0 0.00 0.01 0.00 68 1019.4
20180815164517 87 123 6.0 15.0 0.00 0.01 0.00 67 1019.3
20180815163516 87 126 7.0 12.0 0.00 0.01 0.00 68 1019.4
20180815162516 88 128 5.0 16.0 0.00 0.01 0.00 68 1019.2
20180815161516 87 125 9.0 17.0 0.00 0.01 0.00 67 1019.4
20180815160516 87 131 6.0 15.0 0.00 0.01 0.00 68 1019.4
20180815155516 87 119 6.0 14.0 0.00 0.01 0.00 68 1019.3
20180815154516 87 118 6.0 13.0 0.00 0.01 0.00 70 1019.3
20180815153516 87 109 6.0 12.0 0.00 0.01 0.00 70 1019.3
20180815152516 87 114 5.0 13.0 0.00 0.01 0.00 69 1019.2
20180815151516 87 123 4.0 13.0 0.00 0.01 0.00 69 1019.2
20180815150516 87 126 6.0 15.0 0.00 0.01 0.00 69 1019.2
20180815145516 86 122 7.0 12.0 0.00 0.01 0.00 70 1019.2
20180815144516 86 122 3.0 9.0 0.00 0.01 0.00 70 1019.1
20180815143516 86 0.0 0.0 0.00 0.01 0.00 72 1019.1
20180815142516 85 0.0 0.0 0.00 0.01 0.00 72 1019.0
20180815141515 85 0.0 0.0 0.00 0.01 0.00 72 1018.9
20180815140516 86 0.0 0.0 0.00 0.01 0.00 70 1018.8
20180815135516 85 0.0 0.0 0.00 0.01 0.00 73 1018.8
20180815134516 85 0.0 0.0 0.00 0.01 0.00 73 1018.7
20180815133515 84 0.0 0.0 0.00 0.01 0.00 73 1018.8
20180815132515 84 0.0 0.0 0.00 0.01 0.00 74 1018.6
20180815131516 83 0.0 0.0 0.00 0.01 0.00 75 1018.5
20180815130515 83 0.0 0.0 0.00 0.01 0.00 77 1016.5
20180815125516 83 0.0 0.0 0.00 0.01 0.00 77 1016.6
20180815124515 83 0.0 0.0 0.00 0.01 0.00 76 1018.5
20180815123515 82 0.0 0.0 0.00 0.01 0.00 78 1016.4
20180815122515 81 198 0.0 1.0 0.00 0.01 0.00 79 1013.5
20180815121515 79 0.0 0.0 0.00 0.01 0.00 82 1016.7
20180815120515 78 0.0 0.0 0.00 0.01 0.00 84 1012.3
20180815115515 76 0.0 0.0 0.00 0.01 0.00 84 1016.2
20180815114515 75 0.0 0.0 0.00 0.01 0.00 84 1096.1
20180815113515 75 0.0 0.0 0.00 0.01 0.00 84 1018.2
20180815112516 74 0.0 0.0 0.00 0.01 0.00 84 1018.1
20180815111515 74 0.0 0.0 0.00 0.01 0.00 84 1016.8
20180815110515 74 0.0 0.0 0.00 0.01 0.00 84 1017.8
20180815105515 74 0.0 0.0 0.00 0.01 0.00 84 1017.6
20180815104515 74 0.0 0.0 0.00 0.01 0.00 84 1017.4
20180815103515 74 0.0 0.0 0.00 0.01 0.00 84 1017.3
20180815102520 74 0.0 0.0 0.00 0.01 0.00 84 1016.7
20180815101515 74 0.0 0.0 0.00 0.01 0.00 84 1016.6
20180815100517 74 0.0 0.0 0.00 0.01 0.00 84 1016.6
20180815095517 74 0.0 0.0 0.00 0.01 0.00 84 1015.6
20180815094517 74 0.0 0.0 0.00 0.01 0.00 84 1017.0
20180815093517 74 0.0 0.0 0.00 0.01 0.00 84 1016.8
20180815092516 74 0.0 0.0 0.00 0.01 0.00 84 1016.8
20180815090517 74 0.0 0.0 0.00 0.01 0.00 84 1016.7
20180815085517 74 0.0 0.0 0.00 0.01 0.00 84 1016.8
20180815084516 74 0.0 0.0 0.00 0.01 0.00 84 1016.7
20180815083516 74 0.0 0.0 0.00 0.01 0.00 84 1016.7
20180815082516 75 0.0 0.0 0.00 0.01 0.00 83 1016.7
20180815081517 75 0.0 0.0 0.00 0.01 0.00 84 1016.6
20180815080516 75 0.0 0.0 0.00 0.01 0.00 83 1016.7
20180815075516 75 0.0 0.0 0.00 0.01 0.00 83 1016.7
20180815074517 75 0.0 0.0 0.00 0.01 0.00 83 1016.8
20180815073517 75 0.0 0.0 0.00 0.01 0.00 83 1016.9
20180815072517 75 0.0 0.0 0.00 0.01 0.00 83 1016.9
20180815071516 75 0.0 0.0 0.00 0.01 0.00 83 1017.0
20180815070516 75 0.0 0.0 0.00 0.01 0.00 83 1017.2
20180815065516 75 0.0 0.0 0.00 0.01 0.00 83 1017.3
20180815064516 75 0.0 0.0 0.00 0.01 0.00 83 1017.4
20180815063516 75 0.0 0.0 0.00 0.01 0.00 83 1017.5
20180815062516 75 0.0 0.0 0.00 0.01 0.00 83 1017.6
20180815061516 76 0.0 0.0 0.00 0.01 0.00 83 1017.6
20180815060516 76 0.0 0.0 0.00 0.01 0.00 83 1017.8
20180815055516 76 0.0 0.0 0.00 0.01 0.00 83 1018.0
20180815054516 76 0.0 0.0 0.00 0.01 0.00 83 1018.0
20180815053516 76 0.0 0.0 0.00 0.01 0.00 83 1018.0
20180815052516 76 0.0 0.0 0.00 0.01 0.00 83 1018.0
20180815051516 76 0.0 0.0 0.00 0.01 0.00 83 1018.2
20180815050516 76 0.0 0.0 0.00 0.01 0.00 83 1018.4
20180815045516 76 0.0 0.0 0.00 0.01 0.00 83 1018.3
20180815044515 76 0.0 0.0 0.00 0.01 0.00 83 1018.4
20180815043516 76 0.0 0.0 0.00 0.01 0.00 83 1018.4
20180815042516 76 0.0 0.0 0.00 0.02 0.00 83 1018.4
20180815041515 76 299 0.0 2.0 0.00 0.02 0.00 83 1018.4
20180815040515 76 0.0 0.0 0.00 0.02 0.00 82 1018.4
20180815035516 76 0.0 0.0 0.00 0.02 0.02 82 1018.4
20180815034516 76 0.0 0.0 0.00 0.02 0.02 82 1018.3
20180815033516 77 0.0 0.0 0.00 0.02 0.02 82 1018.2
20180815032516 77 0.0 0.0 0.00 0.02 0.02 82 1018.3
20180815031516 77 0.0 0.0 0.00 0.02 0.02 82 1018.1
20180815030516 77 0.0 0.0 0.00 0.02 0.02 82 1018.1
20180815025516 77 0.0 0.0 0.00 0.02 0.02 82 1018.1
20180815024516 77 0.0 0.0 0.00 0.02 0.02 81 1018.1
20180815023516 77 0.0 0.0 0.00 0.02 0.02 81 1017.9
20180815022516 77 0.0 0.0 0.00 0.03 0.02 81 1017.7
20180815021516 77 0.0 0.0 0.00 0.05 0.02 81 1017.5
20180815020516 77 0.0 0.0 0.00 0.05 0.02 81 1017.4
20180815015516 77 0.0 0.0 0.00 0.05 0.02 81 1017.5
20180815014516 77 0.0 0.0 0.00 0.05 0.02 81 1017.6
20180815013515 77 0.0 1.0 0.00 0.05 0.02 81 1017.5
20180815012516 77 251 1.0 5.0 0.00 0.05 0.02 80 1017.6
20180815011516 78 295 3.0 8.0 0.00 0.05 0.02 80 1017.4
20180815010516 79 278 2.0 9.0 0.00 0.05 0.02 78 1017.1
20180815005516 80 249 4.0 11.0 0.00 0.05 0.02 77 1017.3